,,,PA_Meas_PMT16A,,PR_Meas_QMR101_102,,RH_Meas_QMH101,,SR_Meas_QMS101,,TA_Meas_QMH101,,GenWind,,GenWind,
date,time,status,PA,status,PR,status,RH,status,SR,status,TA,status,DirAvg,status,SpdAvg,
2008-04-17, 00:00:04,VALID,1002.09,VALID,0,VALID,88.0983,VALID,0,VALID,25.1461,VALID,341,VALID,0.623828,
2008-04-17, 00:01:04,VALID,1002.11,VALID,0,VALID,88.228,VALID,0,VALID,25.1286,VALID,315,VALID,0.238281,
2008-04-17, 00:02:04,VALID,1002.07,VALID,0,VALID,88.2967,VALID,0,VALID,25.1072,VALID,342,VALID,0.561328,
2008-04-17, 00:03:04,VALID,1002.08,VALID,0,VALID,88.3653,VALID,0,VALID,25.1072,VALID,343,VALID,0.199609,
2008-04-17, 00:04:04,VALID,1002.07,VALID,0,VALID,88.5332,VALID,0.100563,VALID,25.0663,VALID,314,VALID,0.680859,
2008-04-17, 00:05:04,VALID,1002.04,VALID,0,VALID,88.5255,VALID,0,VALID,25.0877,VALID,300,VALID,0.385938,
2008-04-17, 00:06:04,VALID,1002,VALID,0,VALID,88.3272,VALID,0,VALID,25.1286,VALID,340,VALID,0.457422,
2008-04-17, 00:07:04,VALID,1002,VALID,0,VALID,88.4035,VALID,0,VALID,25.1072,VALID,346,VALID,0.647656,
2008-04-17, 00:08:04,VALID,1001.97,VALID,0,VALID,88.4874,VALID,0,VALID,25.1072,VALID,348,VALID,0.300391,
2008-04-17, 00:09:04,VALID,1001.94,VALID,0,VALID,88.6705,VALID,0,VALID,25.0896,VALID,348,VALID,0.0148437,
2008-04-17, 00:10:04,VALID,1001.93,VALID,0,VALID,88.6476,VALID,0,VALID,25.0896,VALID,348,VALID,0.175781,
2008-04-17, 00:11:04,VALID,1001.91,VALID,0,VALID,88.7391,VALID,0,VALID,25.0701,VALID,348,VALID,0.107031,
2008-04-17, 00:12:04,VALID,1001.86,VALID,0,VALID,88.762,VALID,0,VALID,25.0293,VALID,339,VALID,0.371875,
2008-04-17, 00:13:04,VALID,1001.85,VALID,0,VALID,88.7925,VALID,0,VALID,25.0507,VALID,347,VALID,0.473047,
2008-04-17, 00:14:04,VALID,1001.82,VALID,0,VALID,88.8536,VALID,0,VALID,25.0507,VALID,348,VALID,0.196094,
2008-04-17, 00:15:04,VALID,1001.83,VALID,0,VALID,88.8459,VALID,0,VALID,25.0293,VALID,348,VALID,0.216406,
2008-04-17, 00:16:04,VALID,1001.8,VALID,0,VALID,88.8307,VALID,0,VALID,25.0507,VALID,348,VALID,0,
2008-04-17, 00:17:04,VALID,1001.8,VALID,0,VALID,88.8917,VALID,0,VALID,25.0312,VALID,356,VALID,0.585156,
2008-04-17, 00:18:04,VALID,1001.78,VALID,0,VALID,88.9527,VALID,0,VALID,25.0293,VALID,354,VALID,0.0835937,
2008-04-17, 00:19:04,VALID,1001.76,VALID,0,VALID,88.9985,VALID,0,VALID,25.0117,VALID,354,VALID,0,
2008-04-17, 00:20:04,VALID,1001.72,VALID,0,VALID,88.9985,VALID,0,VALID,25.0117,VALID,354,VALID,0.0757812,
2008-04-17, 00:21:04,VALID,1001.73,VALID,0,VALID,89.1053,VALID,0,VALID,25.0331,VALID,353,VALID,0.0429688,
2008-04-17, 00:22:04,VALID,1001.73,VALID,0,VALID,89.1435,VALID,0,VALID,25.0117,VALID,353,VALID,0,
2008-04-17, 00:23:04,VALID,1001.7,VALID,0,VALID,89.2045,VALID,0,VALID,24.9709,VALID,353,VALID,0.0128906,
2008-04-17, 00:24:04,VALID,1001.72,VALID,0,VALID,89.1435,VALID,0,VALID,24.9904,VALID,353,VALID,0.165234,
2008-04-17, 00:25:04,VALID,1001.72,VALID,0,VALID,89.2121,VALID,0,VALID,25.0117,VALID,353,VALID,0.009375,
2008-04-17, 00:26:04,VALID,1001.74,VALID,0,VALID,89.2503,VALID,0,VALID,25.0098,VALID,353,VALID,0.1125,
2008-04-17, 00:27:04,VALID,1001.74,VALID,0,VALID,89.0824,VALID,0,VALID,25.0293,VALID,353,VALID,0.00664063,
2008-04-17, 00:28:04,VALID,1001.73,VALID,0,VALID,89.0595,VALID,0,VALID,25.0293,VALID,352,VALID,0,
2008-04-17, 00:29:04,VALID,1001.73,VALID,0,VALID,89.1206,VALID,0,VALID,25.0293,VALID,342,VALID,0.0949219,
2008-04-17, 00:30:04,VALID,1001.74,VALID,0,VALID,89.0901,VALID,0.100563,VALID,25.0098,VALID,342,VALID,0,
2008-04-17, 00:31:04,VALID,1001.77,VALID,0,VALID,89.1511,VALID,0,VALID,25.0293,VALID,342,VALID,0.0425781,
2008-04-17, 00:32:04,VALID,1001.75,VALID,0,VALID,89.0824,VALID,0,VALID,25.0293,VALID,290,VALID,0.312109,
2008-04-17, 00:33:04,VALID,1001.71,VALID,0,VALID,89.0519,VALID,0,VALID,25.0488,VALID,290,VALID,0.0160156,
2008-04-17, 00:34:04,VALID,1001.67,VALID,0,VALID,89.0824,VALID,0,VALID,25.0079,VALID,290,VALID,0,
2008-04-17, 00:35:04,VALID,1001.66,VALID,0,VALID,89.1053,VALID,0,VALID,25.0098,VALID,290,VALID,0.137891,
2008-04-17, 00:36:04,VALID,1001.64,VALID,0,VALID,89.1969,VALID,0.100563,VALID,25.0293,VALID,290,VALID,0.0105469,
2008-04-17, 00:37:04,VALID,1001.62,VALID,0,VALID,89.296,VALID,0,VALID,25.0293,VALID,290,VALID,0.0597656,
2008-04-17, 00:38:04,VALID,1001.6,VALID,0,VALID,89.235,VALID,0,VALID,25.0293,VALID,290,VALID,0.266797,
2008-04-17, 00:39:04,VALID,1001.6,VALID,0,VALID,89.2121,VALID,0,VALID,25.0507,VALID,299,VALID,0.283203,
2008-04-17, 00:40:04,VALID,1001.57,VALID,0,VALID,89.2426,VALID,0,VALID,25.0507,VALID,303,VALID,0.4875,
2008-04-17, 00:41:04,VALID,1001.53,VALID,0,VALID,88.9985,VALID,0,VALID,25.1286,VALID,293,VALID,1.09648,
2008-04-17, 00:42:04,VALID,1001.56,VALID,0,VALID,88.5942,VALID,0,VALID,25.187,VALID,295,VALID,0.412891,
2008-04-17, 00:43:04,VALID,1001.53,VALID,0,VALID,88.3501,VALID,0,VALID,25.224,VALID,294,VALID,0.05625,
2008-04-17, 00:44:04,VALID,1001.52,VALID,0,VALID,88.2356,VALID,0,VALID,25.2435,VALID,294,VALID,0.288281,
2008-04-17, 00:45:04,VALID,1001.53,VALID,0,VALID,88.167,VALID,0,VALID,25.2649,VALID,294,VALID,0.128516,
2008-04-17, 00:46:04,VALID,1001.5,VALID,0,VALID,88.1365,VALID,0,VALID,25.2844,VALID,288,VALID,0.560938,
2008-04-17, 00:47:04,VALID,1001.52,VALID,0,VALID,88.1288,VALID,0,VALID,25.2844,VALID,286,VALID,0.238672,
2008-04-17, 00:48:04,VALID,1001.48,VALID,0,VALID,88.0907,VALID,0,VALID,25.3039,VALID,280,VALID,0.348828,
2008-04-17, 00:49:04,VALID,1001.46,VALID,0,VALID,88.1212,VALID,0,VALID,25.263,VALID,283,VALID,0.0484375,
2008-04-17, 00:50:04,VALID,1001.44,VALID,0,VALID,88.0602,VALID,0,VALID,25.2844,VALID,282,VALID,0.138672,
2008-04-17, 00:51:04,VALID,1001.46,VALID,0,VALID,88.1441,VALID,0,VALID,25.2649,VALID,283,VALID,0.224219,
2008-04-17, 00:52:04,VALID,1001.44,VALID,0,VALID,88.1746,VALID,0,VALID,25.2454,VALID,283,VALID,0.34375,
2008-04-17, 00:53:04,VALID,1001.44,VALID,0,VALID,88.289,VALID,0,VALID,25.2454,VALID,288,VALID,0.524609,
2008-04-17, 00:54:04,VALID,1001.43,VALID,0,VALID,88.3806,VALID,0,VALID,25.2454,VALID,287,VALID,0.0507813,
2008-04-17, 00:55:04,VALID,1001.42,VALID,0,VALID,88.3424,VALID,0,VALID,25.226,VALID,289,VALID,0.611328,
2008-04-17, 00:56:04,VALID,1001.42,VALID,0,VALID,88.4035,VALID,0,VALID,25.226,VALID,295,VALID,0.494141,
2008-04-17, 00:57:04,VALID,1001.4,VALID,0,VALID,88.5408,VALID,0,VALID,25.2065,VALID,295,VALID,0.0554687,
2008-04-17, 00:58:04,VALID,1001.41,VALID,0,VALID,88.7162,VALID,0,VALID,25.1851,VALID,306,VALID,0.065625,
2008-04-17, 00:59:04,VALID,1001.37,VALID,0,VALID,88.7773,VALID,0,VALID,25.1656,VALID,272,VALID,0.169531,
2008-04-17, 01:00:04,VALID,1001.35,VALID,0,VALID,88.7086,VALID,0,VALID,25.2065,VALID,272,VALID,0.576172,
2008-04-17, 01:01:04,VALID,1001.38,VALID,0,VALID,88.6323,VALID,0,VALID,25.226,VALID,277,VALID,0.166016,
2008-04-17, 01:02:04,VALID,1001.35,VALID,0,VALID,88.5408,VALID,0,VALID,25.2454,VALID,313,VALID,0.366016,
2008-04-17, 01:03:04,VALID,1001.34,VALID,0,VALID,88.5026,VALID,0,VALID,25.224,VALID,320,VALID,0.175391,
2008-04-17, 01:04:04,VALID,1001.34,VALID,0,VALID,88.495,VALID,0,VALID,25.224,VALID,297,VALID,0.460547,
2008-04-17, 01:05:04,VALID,1001.33,VALID,0,VALID,88.5789,VALID,0,VALID,25.2649,VALID,289,VALID,0.0589844,
2008-04-17, 01:06:04,VALID,1001.33,VALID,0,VALID,88.5332,VALID,0,VALID,25.224,VALID,290,VALID,0.707031,
2008-04-17, 01:07:04,VALID,1001.32,VALID,0,VALID,88.4492,VALID,0,VALID,25.2649,VALID,290,VALID,0.409375,
2008-04-17, 01:08:04,VALID,1001.32,VALID,0,VALID,88.4264,VALID,0,VALID,25.2435,VALID,307,VALID,0.298828,
2008-04-17, 01:09:04,VALID,1001.33,VALID,0,VALID,88.4187,VALID,0,VALID,25.2435,VALID,313,VALID,0.00078125,
2008-04-17, 01:10:04,VALID,1001.32,VALID,0,VALID,88.4645,VALID,0,VALID,25.2435,VALID,320,VALID,0.380859,
2008-04-17, 01:11:04,VALID,1001.31,VALID,0,VALID,88.5942,VALID,0,VALID,25.224,VALID,320,VALID,0.160938,
2008-04-17, 01:12:04,VALID,1001.3,VALID,0,VALID,88.5026,VALID,0,VALID,25.2454,VALID,300,VALID,0.632422,
2008-04-17, 01:13:04,VALID,1001.28,VALID,0,VALID,88.495,VALID,0,VALID,25.263,VALID,322,VALID,0.425,
2008-04-17, 01:14:04,VALID,1001.31,VALID,0,VALID,88.4035,VALID,0,VALID,25.263,VALID,328,VALID,0.265234,
2008-04-17, 01:15:04,VALID,1001.29,VALID,0,VALID,88.434,VALID,0,VALID,25.2825,VALID,328,VALID,0,
2008-04-17, 01:16:04,VALID,1001.29,VALID,0,VALID,88.4645,VALID,0,VALID,25.263,VALID,330,VALID,0.317969,
2008-04-17, 01:17:04,VALID,1001.24,VALID,0,VALID,88.5942,VALID,0,VALID,25.2825,VALID,329,VALID,0.414844,
2008-04-17, 01:18:04,VALID,1001.21,VALID,0,VALID,88.6018,VALID,0,VALID,25.2844,VALID,330,VALID,0.01875,
2008-04-17, 01:19:04,VALID,1001.2,VALID,0,VALID,88.701,VALID,0,VALID,25.2435,VALID,348,VALID,0.669922,
2008-04-17, 01:20:04,VALID,1001.19,VALID,0,VALID,88.6781,VALID,0,VALID,25.2649,VALID,349,VALID,0.453906,
2008-04-17, 01:21:04,VALID,1001.19,VALID,0,VALID,88.6857,VALID,0,VALID,25.2844,VALID,349,VALID,0.183203,
2008-04-17, 01:22:04,VALID,1001.14,VALID,0,VALID,88.7162,VALID,0,VALID,25.263,VALID,335,VALID,0.351563,
2008-04-17, 01:23:04,VALID,1001.13,VALID,0,VALID,88.8307,VALID,0,VALID,25.2844,VALID,332,VALID,0.0816406,
2008-04-17, 01:24:04,VALID,1001.12,VALID,0,VALID,88.7925,VALID,0,VALID,25.3039,VALID,345,VALID,0.198047,
2008-04-17, 01:25:04,VALID,1001.08,VALID,0,VALID,88.8841,VALID,0,VALID,25.3233,VALID,350,VALID,0.160938,
2008-04-17, 01:26:04,VALID,1001.08,VALID,0,VALID,88.907,VALID,0,VALID,25.3233,VALID,332,VALID,0.123828,
2008-04-17, 01:27:04,VALID,1001.07,VALID,0,VALID,88.8993,VALID,0,VALID,25.3019,VALID,290,VALID,0.255469,
2008-04-17, 01:28:04,VALID,1001.03,VALID,0,VALID,88.8841,VALID,0,VALID,25.3019,VALID,275,VALID,0.3,
2008-04-17, 01:29:04,VALID,1001.02,VALID,0,VALID,88.8841,VALID,0,VALID,25.3019,VALID,275,VALID,0.040625,
2008-04-17, 01:30:04,VALID,1001.02,VALID,0,VALID,88.8917,VALID,0,VALID,25.3233,VALID,6,VALID,0.344141,
2008-04-17, 01:31:04,VALID,1001,VALID,0,VALID,88.9299,VALID,0,VALID,25.3233,VALID,344,VALID,0.434766,
2008-04-17, 01:32:04,VALID,1000.97,VALID,0,VALID,88.9299,VALID,0,VALID,25.3214,VALID,355,VALID,0.151953,
2008-04-17, 01:33:04,VALID,1001,VALID,0,VALID,89.0443,VALID,0,VALID,25.3019,VALID,355,VALID,0.105469,
2008-04-17, 01:34:04,VALID,1000.99,VALID,0,VALID,89.1358,VALID,0,VALID,25.3019,VALID,355,VALID,0.0648438,
2008-04-17, 01:35:04,VALID,1000.98,VALID,0,VALID,89.1892,VALID,0,VALID,25.3019,VALID,355,VALID,0.0105469,
2008-04-17, 01:36:04,VALID,1000.96,VALID,0,VALID,89.2808,VALID,0,VALID,25.263,VALID,355,VALID,0.501562,
2008-04-17, 01:37:04,VALID,1000.97,VALID,0,VALID,89.3494,VALID,0,VALID,25.263,VALID,355,VALID,0.0667969,
2008-04-17, 01:38:04,VALID,1000.95,VALID,0,VALID,89.4944,VALID,0,VALID,25.263,VALID,354,VALID,0.223047,
2008-04-17, 01:39:04,VALID,1000.96,VALID,0,VALID,89.5707,VALID,0,VALID,25.263,VALID,321,VALID,0.437109,
2008-04-17, 01:40:04,VALID,1000.95,VALID,0,VALID,89.5783,VALID,0,VALID,25.2844,VALID,301,VALID,0.0382813,
2008-04-17, 01:41:04,VALID,1000.92,VALID,0,VALID,89.6699,VALID,0,VALID,25.2844,VALID,311,VALID,0.0015625,
2008-04-17, 01:42:04,VALID,1000.92,VALID,0,VALID,89.6851,VALID,0,VALID,25.263,VALID,267,VALID,0.664453,
2008-04-17, 01:43:04,VALID,1000.92,VALID,0,VALID,89.6546,VALID,0,VALID,25.2825,VALID,296,VALID,0.336719,
2008-04-17, 01:44:04,VALID,1000.93,VALID,0,VALID,89.647,VALID,0,VALID,25.3039,VALID,292,VALID,0.526563,
2008-04-17, 01:45:04,VALID,1000.9,VALID,0,VALID,89.5859,VALID,0,VALID,25.3233,VALID,301,VALID,0.414453,
2008-04-17, 01:46:04,VALID,1000.94,VALID,0,VALID,89.5554,VALID,0,VALID,25.3214,VALID,298,VALID,0.374609,
2008-04-17, 01:47:04,VALID,1000.93,VALID,0,VALID,89.5936,VALID,0,VALID,25.3214,VALID,330,VALID,0.169531,
2008-04-17, 01:48:04,VALID,1000.9,VALID,0,VALID,89.6088,VALID,0,VALID,25.3214,VALID,316,VALID,0.134766,
2008-04-17, 01:49:04,VALID,1000.9,VALID,0,VALID,89.6088,VALID,0,VALID,25.3233,VALID,310,VALID,0.294922,
2008-04-17, 01:50:04,VALID,1000.9,VALID,0,VALID,89.5554,VALID,0,VALID,25.3428,VALID,289,VALID,0.564844,
2008-04-17, 01:51:04,VALID,1000.9,VALID,0,VALID,89.5249,VALID,0,VALID,25.3409,VALID,293,VALID,0.191016,
2008-04-17, 01:52:04,VALID,1000.9,VALID,0,VALID,89.4715,VALID,0,VALID,25.3409,VALID,284,VALID,0.0554687,
2008-04-17, 01:53:04,VALID,1000.89,VALID,0,VALID,89.502,VALID,0,VALID,25.3214,VALID,284,VALID,0.179688,
2008-04-17, 01:54:04,VALID,1000.85,VALID,0,VALID,89.6088,VALID,0,VALID,25.3214,VALID,310,VALID,0.440625,
2008-04-17, 01:55:04,VALID,1000.87,VALID,0,VALID,89.6927,VALID,0,VALID,25.3214,VALID,327,VALID,0.00976563,
2008-04-17, 01:56:04,VALID,1000.89,VALID,0,VALID,89.7614,VALID,0,VALID,25.3214,VALID,331,VALID,0.00703125,
2008-04-17, 01:57:04,VALID,1000.85,VALID,0,VALID,89.8377,VALID,0,VALID,25.3428,VALID,344,VALID,0.264453,
2008-04-17, 01:58:04,VALID,1000.82,VALID,0,VALID,89.8835,VALID,0,VALID,25.3214,VALID,340,VALID,0.405469,
2008-04-17, 01:59:04,VALID,1000.82,VALID,0,VALID,89.9216,VALID,0,VALID,25.3019,VALID,309,VALID,0.292188,
2008-04-17, 02:00:04,VALID,1000.81,VALID,0,VALID,90.0742,VALID,0,VALID,25.3039,VALID,301,VALID,0.203906,
2008-04-17, 02:01:04,VALID,1000.81,VALID,0,VALID,90.1429,VALID,0,VALID,25.3233,VALID,304,VALID,0.109375,
2008-04-17, 02:02:04,VALID,1000.75,VALID,0,VALID,90.1581,VALID,0,VALID,25.3039,VALID,298,VALID,0.0519531,
2008-04-17, 02:03:04,VALID,1000.75,VALID,0,VALID,90.2268,VALID,0,VALID,25.3019,VALID,298,VALID,0.0582031,
2008-04-17, 02:04:04,VALID,1000.73,VALID,0,VALID,90.2497,VALID,0,VALID,25.3019,VALID,297,VALID,0.0375,
2008-04-17, 02:05:04,VALID,1000.71,VALID,0,VALID,90.3031,VALID,0,VALID,25.3214,VALID,297,VALID,0.0121094,
2008-04-17, 02:06:04,VALID,1000.72,VALID,0,VALID,90.2649,VALID,0,VALID,25.3214,VALID,294,VALID,0.00195313,
2008-04-17, 02:07:04,VALID,1000.69,VALID,0,VALID,90.2649,VALID,0,VALID,25.3214,VALID,343,VALID,0.421875,
2008-04-17, 02:08:04,VALID,1000.69,VALID,0,VALID,90.3031,VALID,0,VALID,25.3623,VALID,290,VALID,0.612891,
2008-04-17, 02:09:04,VALID,1000.69,VALID,0,VALID,90.2649,VALID,0,VALID,25.3623,VALID,289,VALID,0,
2008-04-17, 02:10:04,VALID,1000.68,VALID,0,VALID,90.3031,VALID,0,VALID,25.3623,VALID,289,VALID,0.174219,
2008-04-17, 02:11:04,VALID,1000.69,VALID,0,VALID,90.3183,VALID,0,VALID,25.3409,VALID,321,VALID,0.417578,
2008-04-17, 02:12:04,VALID,1000.71,VALID,0,VALID,90.2497,VALID,0,VALID,25.3818,VALID,321,VALID,0.221484,
2008-04-17, 02:13:04,VALID,1000.72,VALID,0,VALID,90.1734,VALID,0,VALID,25.4207,VALID,296,VALID,0.0210938,
2008-04-17, 02:14:04,VALID,1000.67,VALID,0,VALID,90.12,VALID,0,VALID,25.4207,VALID,287,VALID,0.471484,
2008-04-17, 02:15:04,VALID,1000.66,VALID,0,VALID,90.036,VALID,0,VALID,25.4188,VALID,286,VALID,0.0195313,
2008-04-17, 02:16:04,VALID,1000.7,VALID,0,VALID,90.0055,VALID,0,VALID,25.4597,VALID,308,VALID,0.283984,
2008-04-17, 02:17:04,VALID,1000.67,VALID,0,VALID,89.9598,VALID,0,VALID,25.4188,VALID,302,VALID,0.55625,
2008-04-17, 02:18:04,VALID,1000.68,VALID,0,VALID,89.914,VALID,0,VALID,25.4383,VALID,300,VALID,0.160547,
2008-04-17, 02:19:04,VALID,1000.66,VALID,0,VALID,89.9445,VALID,0,VALID,25.4383,VALID,314,VALID,0.287891,
2008-04-17, 02:20:04,VALID,1000.64,VALID,0,VALID,89.9521,VALID,0,VALID,25.4383,VALID,344,VALID,0.0140625,
2008-04-17, 02:21:04,VALID,1000.64,VALID,0,VALID,89.9979,VALID,0,VALID,25.4383,VALID,344,VALID,0.0105469,
2008-04-17, 02:22:04,VALID,1000.63,VALID,0,VALID,90.0437,VALID,0,VALID,25.4207,VALID,343,VALID,0.223438,
2008-04-17, 02:23:04,VALID,1000.61,VALID,0,VALID,90.0589,VALID,0,VALID,25.4207,VALID,343,VALID,0.207422,
2008-04-17, 02:24:04,VALID,1000.63,VALID,0,VALID,90.0818,VALID,0,VALID,25.4207,VALID,342,VALID,0.0183594,
2008-04-17, 02:25:04,VALID,1000.63,VALID,0,VALID,90.1963,VALID,0,VALID,25.3798,VALID,342,VALID,0.0046875,
2008-04-17, 02:26:04,VALID,1000.62,VALID,0,VALID,90.3717,VALID,0,VALID,25.3604,VALID,319,VALID,0.248047,
2008-04-17, 02:27:04,VALID,1000.61,VALID,0,VALID,90.4175,VALID,0,VALID,25.3818,VALID,304,VALID,0.321094,
2008-04-17, 02:28:04,VALID,1000.61,VALID,0,VALID,90.3641,VALID,0,VALID,25.3818,VALID,304,VALID,0.233594,
2008-04-17, 02:29:04,VALID,1000.62,VALID,0,VALID,90.3412,VALID,0,VALID,25.4012,VALID,309,VALID,0.359375,
2008-04-17, 02:30:04,VALID,1000.63,VALID,0,VALID,90.387,VALID,0,VALID,25.4012,VALID,298,VALID,0.380859,
2008-04-17, 02:31:04,VALID,1000.59,VALID,0,VALID,90.4099,VALID,0,VALID,25.3798,VALID,297,VALID,0.302734,
2008-04-17, 02:32:04,VALID,1000.6,VALID,0,VALID,90.4175,VALID,0,VALID,25.4012,VALID,282,VALID,0.782422,
2008-04-17, 02:33:04,VALID,1000.57,VALID,0,VALID,90.4327,VALID,0,VALID,25.3604,VALID,302,VALID,0.332812,
2008-04-17, 02:34:04,VALID,1000.55,VALID,0,VALID,90.509,VALID,0,VALID,25.3604,VALID,355,VALID,0.673047,
2008-04-17, 02:35:04,VALID,1000.54,VALID,0,VALID,90.5243,VALID,0,VALID,25.3623,VALID,357,VALID,0.251172,
2008-04-17, 02:36:04,VALID,1000.57,VALID,0,VALID,90.7074,VALID,0,VALID,25.3818,VALID,352,VALID,0.757813,
2008-04-17, 02:37:04,VALID,1000.52,VALID,0,VALID,90.8218,VALID,0,VALID,25.3604,VALID,353,VALID,0.962891,
2008-04-17, 02:38:04,VALID,1000.51,VALID,0,VALID,90.8676,VALID,0,VALID,25.3409,VALID,327,VALID,0.544922,
2008-04-17, 02:39:04,VALID,1000.51,VALID,0,VALID,90.8905,VALID,0,VALID,25.3409,VALID,360,VALID,0.733594,
2008-04-17, 02:40:04,VALID,1000.48,VALID,0,VALID,91.1346,VALID,0,VALID,25.3409,VALID,327,VALID,0.665625,
2008-04-17, 02:41:04,VALID,1000.49,VALID,0,VALID,91.0583,VALID,0,VALID,25.3604,VALID,317,VALID,0.216406,
2008-04-17, 02:42:04,VALID,1000.51,VALID,0,VALID,91.0125,VALID,0,VALID,25.3604,VALID,303,VALID,0.228906,
2008-04-17, 02:43:04,VALID,1000.5,VALID,0,VALID,91.0278,VALID,0,VALID,25.3818,VALID,303,VALID,0.0929687,
2008-04-17, 02:44:04,VALID,1000.5,VALID,0,VALID,91.0812,VALID,0,VALID,25.3623,VALID,302,VALID,0.167578,
2008-04-17, 02:45:04,VALID,1000.49,VALID,0,VALID,91.1346,VALID,0,VALID,25.3623,VALID,307,VALID,0.0804688,
2008-04-17, 02:46:04,VALID,1000.53,VALID,0,VALID,91.2033,VALID,0,VALID,25.3409,VALID,307,VALID,0.305859,
2008-04-17, 02:47:04,VALID,1000.49,VALID,0,VALID,91.2872,VALID,0,VALID,25.3409,VALID,305,VALID,0.288281,
2008-04-17, 02:48:04,VALID,1000.53,VALID,0,VALID,91.5313,VALID,0,VALID,25.3214,VALID,292,VALID,0.517187,
2008-04-17, 02:49:04,VALID,1000.51,VALID,0,VALID,91.4855,VALID,0,VALID,25.3409,VALID,292,VALID,0.292578,
2008-04-17, 02:50:04,VALID,1000.54,VALID,0,VALID,91.5084,VALID,0,VALID,25.3409,VALID,292,VALID,0.349219,
2008-04-17, 02:51:04,VALID,1000.51,VALID,0,VALID,91.5923,VALID,0,VALID,25.3818,VALID,296,VALID,0.841797,
2008-04-17, 02:52:04,VALID,1000.5,VALID,0,VALID,91.4169,VALID,0,VALID,25.3993,VALID,292,VALID,0.115625,
2008-04-17, 02:53:04,VALID,1000.5,VALID,0,VALID,91.333,VALID,0,VALID,25.4402,VALID,292,VALID,0.683984,
2008-04-17, 02:54:04,VALID,1000.48,VALID,0,VALID,91.249,VALID,0,VALID,25.4577,VALID,298,VALID,0.594922,
2008-04-17, 02:55:04,VALID,1000.46,VALID,0,VALID,91.0888,VALID,0,VALID,25.4967,VALID,334,VALID,0.334766,
2008-04-17, 02:56:04,VALID,1000.46,VALID,0,VALID,90.982,VALID,0,VALID,25.5376,VALID,338,VALID,0.146094,
2008-04-17, 02:57:04,VALID,1000.47,VALID,0,VALID,90.9057,VALID,0,VALID,25.5162,VALID,301,VALID,0.300391,
2008-04-17, 02:58:04,VALID,1000.48,VALID,0,VALID,90.9286,VALID,0,VALID,25.5357,VALID,295,VALID,0.785547,
2008-04-17, 02:59:04,VALID,1000.5,VALID,0,VALID,90.9286,VALID,0,VALID,25.5357,VALID,295,VALID,0.714063,
2008-04-17, 03:00:04,VALID,1000.48,VALID,0,VALID,90.7913,VALID,0,VALID,25.5746,VALID,280,VALID,0.0929687,
2008-04-17, 03:01:04,VALID,1000.49,VALID,0,VALID,90.6921,VALID,0,VALID,25.6136,VALID,280,VALID,0.166016,
2008-04-17, 03:02:04,VALID,1000.5,VALID,0,VALID,90.6616,VALID,0,VALID,25.6136,VALID,288,VALID,0.711328,
2008-04-17, 03:03:04,VALID,1000.49,VALID,0,VALID,90.5472,VALID,0,VALID,25.633,VALID,298,VALID,0.382813,
2008-04-17, 03:04:04,VALID,1000.47,VALID,0,VALID,90.4251,VALID,0,VALID,25.6739,VALID,298,VALID,0.74375,
2008-04-17, 03:05:04,VALID,1000.53,VALID,0,VALID,90.2725,VALID,0,VALID,25.672,VALID,287,VALID,0.849219,
2008-04-17, 03:06:04,VALID,1000.49,VALID,0,VALID,90.2039,VALID,0,VALID,25.6506,VALID,320,VALID,0.558984,
2008-04-17, 03:07:04,VALID,1000.48,VALID,0,VALID,90.2268,VALID,0,VALID,25.6934,VALID,344,VALID,0.558594,
2008-04-17, 03:08:04,VALID,1000.46,VALID,0,VALID,90.2802,VALID,0,VALID,25.7129,VALID,355,VALID,0.85625,
2008-04-17, 03:09:04,VALID,1000.45,VALID,0,VALID,90.2191,VALID,0,VALID,25.6915,VALID,358,VALID,0.895312,
2008-04-17, 03:10:04,VALID,1000.47,VALID,0,VALID,90.2115,VALID,0,VALID,25.6934,VALID,351,VALID,0.0988281,
2008-04-17, 03:11:04,VALID,1000.42,VALID,0,VALID,90.2573,VALID,0,VALID,25.6934,VALID,19,VALID,0.493359,
2008-04-17, 03:12:04,VALID,1000.4,VALID,0,VALID,90.2573,VALID,0,VALID,25.6525,VALID,352,VALID,0.541016,
2008-04-17, 03:13:04,VALID,1000.42,VALID,0,VALID,90.242,VALID,0,VALID,25.6525,VALID,350,VALID,0.35625,
2008-04-17, 03:14:04,VALID,1000.42,VALID,0,VALID,90.2497,VALID,0,VALID,25.6525,VALID,301,VALID,0.392188,
2008-04-17, 03:15:04,VALID,1000.4,VALID,0,VALID,90.242,VALID,0,VALID,25.6739,VALID,346,VALID,0.303516,
2008-04-17, 03:16:04,VALID,1000.41,VALID,0,VALID,90.3793,VALID,0,VALID,25.6545,VALID,268,VALID,0.378516,
2008-04-17, 03:17:04,VALID,1000.39,VALID,0,VALID,90.4022,VALID,0,VALID,25.6136,VALID,268,VALID,0.234375,
2008-04-17, 03:18:04,VALID,1000.4,VALID,0,VALID,90.4633,VALID,0,VALID,25.5941,VALID,282,VALID,0.425781,
2008-04-17, 03:19:04,VALID,1000.37,VALID,0,VALID,90.509,VALID,0,VALID,25.6136,VALID,282,VALID,0.00234375,
2008-04-17, 03:20:04,VALID,1000.35,VALID,0,VALID,90.5701,VALID,0,VALID,25.635,VALID,278,VALID,0.829297,
2008-04-17, 03:21:04,VALID,1000.36,VALID,0,VALID,90.5319,VALID,0,VALID,25.633,VALID,314,VALID,0.0503906,
2008-04-17, 03:22:04,VALID,1000.32,VALID,0,VALID,90.5472,VALID,0,VALID,25.6739,VALID,314,VALID,0.242578,
2008-04-17, 03:23:04,VALID,1000.29,VALID,0,VALID,90.4938,VALID,0,VALID,25.6934,VALID,316,VALID,0.455469,
2008-04-17, 03:24:04,VALID,1000.3,VALID,0,VALID,90.2344,VALID,0,VALID,25.6915,VALID,352,VALID,0.382813,
2008-04-17, 03:25:04,VALID,1000.31,VALID,0,VALID,90.2268,VALID,0,VALID,25.7129,VALID,335,VALID,0.0339844,
2008-04-17, 03:26:04,VALID,1000.35,VALID,0,VALID,90.1657,VALID,0,VALID,25.7109,VALID,332,VALID,0.237891,
2008-04-17, 03:27:04,VALID,1000.37,VALID,0,VALID,90.1352,VALID,0,VALID,25.7519,VALID,337,VALID,0.335156,
2008-04-17, 03:28:04,VALID,1000.32,VALID,0,VALID,90.12,VALID,0,VALID,25.7109,VALID,342,VALID,0.305859,
2008-04-17, 03:29:04,VALID,1000.35,VALID,0,VALID,90.1123,VALID,0,VALID,25.7109,VALID,345,VALID,0.202734,
2008-04-17, 03:30:04,VALID,1000.32,VALID,0,VALID,90.1505,VALID,0,VALID,25.6915,VALID,307,VALID,0.446484,
2008-04-17, 03:31:04,VALID,1000.32,VALID,0,VALID,90.2039,VALID,0,VALID,25.6934,VALID,305,VALID,0.455469,
2008-04-17, 03:32:04,VALID,1000.31,VALID,0,VALID,90.2573,VALID,0,VALID,25.7129,VALID,347,VALID,0.996484,
2008-04-17, 03:33:04,VALID,1000.34,VALID,0,VALID,90.2802,VALID,0,VALID,25.672,VALID,289,VALID,0.164063,
2008-04-17, 03:34:04,VALID,1000.32,VALID,0,VALID,90.2649,VALID,0,VALID,25.6525,VALID,289,VALID,0.00117188,
2008-04-17, 03:35:04,VALID,1000.3,VALID,0,VALID,90.2268,VALID,0,VALID,25.6545,VALID,300,VALID,0.021875,
2008-04-17, 03:36:04,VALID,1000.31,VALID,0,VALID,90.242,VALID,0,VALID,25.6525,VALID,357,VALID,0.451172,
2008-04-17, 03:37:04,VALID,1000.35,VALID,0,VALID,90.1734,VALID,0,VALID,25.6739,VALID,357,VALID,0.286328,
2008-04-17, 03:38:04,VALID,1000.33,VALID,0,VALID,90.2268,VALID,0,VALID,25.633,VALID,333,VALID,0.436328,
2008-04-17, 03:39:04,VALID,1000.36,VALID,0,VALID,90.2344,VALID,0,VALID,25.6545,VALID,357,VALID,0.56875,
2008-04-17, 03:40:04,VALID,1000.33,VALID,0,VALID,90.2573,VALID,0,VALID,25.635,VALID,335,VALID,0.65,
2008-04-17, 03:41:04,VALID,1000.34,VALID,0,VALID,90.242,VALID,0,VALID,25.6545,VALID,276,VALID,0.497266,
2008-04-17, 03:42:04,VALID,1000.33,VALID,0,VALID,90.1123,VALID,0,VALID,25.6525,VALID,303,VALID,0.360547,
2008-04-17, 03:43:04,VALID,1000.37,VALID,0,VALID,89.975,VALID,0,VALID,25.672,VALID,303,VALID,0.449219,
2008-04-17, 03:44:04,VALID,1000.37,VALID,0,VALID,89.914,VALID,0,VALID,25.672,VALID,300,VALID,0.591797,